Temp
4 4 5 4 4 4 3 3 3 3 3 3 4 4 4 4 4 4 4 4 4 3 3 3 2 2 2 2 2 2 2 2 2 2 2 2 2 2 2 2 2 2 2 2 2 1 1 1 1 0 0 0 0 0 1 1 0 1 1 1 1 1 1
4 5 5 4 4 4 4 3 3 3 3 3 3 3 4 4 4 4 4 4 4 4 4 3 3 2 2 2 2 2 2 2 2 2 2 2 2 2 2 2 2 2 2 2 1 1 1 1 1 0 0 0 0 0 0 0 1 1 1 1 1 1 1
4 4 4 4 4 4 4 3 3 3 3 3 3 3 3 4 4 4 4 4 3 3 3 4 3 2 2 2 2 2 2 2 2 2 2 1 2 2 1 2 2 2 2 1 1 1 1 1 1 1 0 0 0 0 0 1 1 1 1 1 1 1 1
4 4 4 4 4 4 4 3 3 3 3 3 3 3 3 3 3 4 4 4 3 3 3 3 2 2 2 2 2 2 2 2 2 2 2 1 2 2 1 1 2 1 1 1 0 0 1 1 1 1 1 1 0 1 1 1 1 1 1 1 1 1 1
4 4 4 4 4 3 3 3 3 3 3 3 3 3 3 3 3 4 4 4 3 3 2 2 2 2 2 2 2 2 2 1 1 2 2 2 1 1 1 1 1 1 1 0 0 0 0 0 0 1 1 1 1 1 0 0 0 1 1 1 1 1 1
4 4 4 4 3 3 3 3 3 3 3 2 2 2 3 3 3 3 4 4 3 3 2 2 2 2 2 2 2 2 2 1 1 2 1 1 1 1 1 1 1 1 1 1 0 0 0 -0 -0 0 1 1 0 0 0 0 0 1 1 1 1 1 1
4 4 4 3 3 3 3 3 2 2 2 2 2 2 2 2 3 3 3 4 3 3 2 2 2 2 2 2 2 2 2 2 1 1 1 1 1 1 1 1 1 1 1 1 0 0 0 -1 -1 -1 -0 0 -0 -0 -0 0 0 0 0 0 0 0 0
4 4 4 4 3 3 3 2 2 2 2 2 2 2 2 2 2 2 3 3 3 3 3 2 2 2 2 2 2 2 2 2 1 1 1 1 1 1 1 1 1 1 1 1 1 0 0 -1 -1 -1 -0 -1 -1 -1 -1 -1 -0 -0 -0 -0 -0 -0 -0
4 4 4 4 3 3 3 2 2 2 2 2 2 2 2 2 2 2 3 3 3 3 3 2 2 2 2 2 2 2 1 1 1 1 1 1 1 1 1 1 1 1 1 1 1 1 1 -0 -1 -0 -0 -1 -1 -1 -2 -1 -0 -0 -0 -0 -0 -0 -0
4 4 4 3 3 3 3 3 3 2 2 2 2 2 2 2 2 2 2 3 3 3 3 2 2 2 2 1 1 1 1 1 1 1 1 1 1 1 1 1 2 1 1 1 1 1 1 1 0 -1 -1 -1 -1 -1 -1 -1 -0 -1 -0 -0 -0 -0 -0
4 4 4 3 3 3 3 3 3 3 2 2 2 2 2 2 2 2 2 2 3 3 3 3 2 2 2 1 1 1 1 1 1 1 1 1 2 2 1 1 1 1 1 1 1 1 1 1 0 -0 -1 -1 -1 -1 -1 -1 -0 -1 -1 -0 -0 0 0
4 4 4 3 3 3 3 3 3 3 2 2 2 2 2 2 2 2 2 2 3 3 3 3 3 2 2 2 2 2 2 2 2 2 2 1 1 1 1 1 1 1 1 1 1 0 0 0 0 0 0 -0 -1 -1 -1 -0 -0 -0 -1 -0 -0 0 0
4 4 3 3 3 3 3 3 3 3 2 2 2 2 2 1 2 2 2 2 3 3 3 3 3 2 2 2 2 2 2 2 2 2 2 2 1 1 1 1 1 1 1 0 0 0 0 0 0 -0 -0 -0 -1 -1 -1 -1 -1 -1 -0 -0 -0 -0 -0
3 3 3 3 3 3 3 3 3 3 2 2 2 2 1 2 2 2 2 2 3 3 3 3 2 2 2 2 2 2 2 2 2 2 2 2 1 1 1 1 1 1 1 1 1 1 0 0 -0 -0 -1 -1 -1 -1 -1 -1 -0 -0 -0 -0 -0 -0 -0
3 3 3 3 3 3 3 3 3 3 3 2 2 2 1 2 2 2 2 2 2 2 2 2 2 2 2 2 2 2 2 2 2 2 2 2 1 1 1 1 1 1 1 1 1 1 0 -0 -0 0 -0 -0 -0 -1 -1 -1 -0 0 0 -0 -0 -0 -0
3 3 3 3 3 3 3 3 3 3 3 3 3 3 2 2 2 2 2 2 2 2 2 2 2 2 2 2 2 2 2 2 2 2 2 2 1 1 1 1 1 1 0 0 0 0 -0 -0 -0 0 0 0 -0 -0 -1 -1 -1 0 0 0 -0 0 0
3 3 3 3 3 3 3 3 3 3 3 3 3 3 2 2 2 2 1 2 2 2 2 2 2 2 1 1 2 2 1 1 1 1 1 1 1 1 1 1 0 0 0 0 0 0 -0 -0 -0 -0 -0 -0 -0 -1 -1 -1 -1 -1 -1 -1 -1 -0 0
3 3 3 3 3 3 3 3 3 3 3 3 3 3 2 2 2 2 1 1 2 2 2 2 1 1 1 1 1 1 1 1 1 1 1 1 1 1 1 1 0 0 0 0 0 0 -0 -0 -0 -0 -1 -1 -0 -0 -1 -1 -1 -1 -1 -1 -1 -1 -1
3 3 3 3 3 3 3 3 3 3 3 3 3 2 2 2 2 1 1 1 1 1 1 1 1 1 1 1 1 1 1 1 1 1 1 1 1 1 1 1 1 1 0 0 0 0 0 -0 -0 -0 -0 -1 -1 -0 -0 -1 -1 -1 -1 -1 -1 -1 -1
3 3 3 3 3 3 3 3 3 3 3 2 2 2 2 2 2 1 1 1 1 1 1 1 1 1 1 1 1 1 1 1 1 1 0 0 0 0 0 0 1 1 0 0 0 0 0 -0 -0 -0 -0 -1 -1 -1 -1 -1 -1 -1 -1 -1 -1 -1 -1
3 3 3 3 3 3 2 2 2 2 2 2 2 2 2 2 1 1 1 1 1 1 1 1 1 1 1 0 0 0 0 0 0 0 0 0 0 0 0 0 0 0 0 -0 -0 -0 -0 -0 -0 -1 -1 -1 -1 -1 -1 -1 -1 -1 -1 -1 -1 -1 -1
3 3 3 2 2 2 2 2 2 2 2 1 1 1 1 1 1 1 1 1 1 1 1 0 0 0 0 0 0 0 -0 -0 -0 -0 -0 -0 0 0 -0 -0 -0 -0 -1 -1 -1 -1 -1 -1 -1 -1 -1 -1 -1 -1 -1 -1 -1 -1 -1 -1 -1 -1 -1
3 2 2 2 2 2 2 2 2 1 1 1 1 1 1 1 1 1 1 1 1 1 0 0 0 0 0 0 -0 -0 -0 -0 -0 -0 -0 -0 -0 -0 -0 -0 -0 -0 -1 -1 -1 -1 -1 -1 -1 -1 -1 -1 -1 -1 -1 -1 -1 -1 -1 -1 -1 -1 -2
2 2 2 2 2 2 2 2 2 2 1 1 1 1 0 0 1 1 1 1 1 0 0 0 0 -0 -0 -0 -0 -0 -0 -0 -0 -1 -1 -1 -1 -1 -1 -1 -1 -1 -1 -1 -1 -1 -1 -1 -2 -2 -2 -1 -1 -1 -1 -1 -1 -1 -1 -1 -1 -1 -1
2 2 2 2 2 2 2 2 2 2 1 1 1 0 0 -0 -0 0 0 0 0 0 -0 -0 -0 -0 -0 -0 -0 -0 -0 -0 -1 -1 -1 -1 -1 -1 -1 -1 -1 -1 -1 -1 -2 -2 -2 -2 -2 -2 -2 -2 -2 -2 -2 -2 -1 -1 -1 -1 -1 -2 -2
1 1 1 1 1 2 2 2 2 2 2 1 1 1 0 -0 -0 -0 -0 -0 -0 -1 -1 -1 -1 -0 -0 -1 -1 -1 -1 -1 -1 -1 -1 -1 -1 -1 -1 -1 -1 -1 -1 -1 -2 -2 -2 -2 -2 -2 -2 -2 -2 -2 -2 -2 -2 -2 -2 -2 -2 -2 -2
1 1 1 1 1 1 1 1 1 1 1 1 1 1 0 0 -0 -0 -1 -1 -1 -1 -1 -1 -1 -0 -0 -1 -1 -1 -1 -1 -1 -1 -1 -1 -1 -1 -1 -1 -1 -1 -1 -1 -2 -2 -2 -2 -2 -2 -2 -2 -2 -2 -2 -2 -2 -2 -2 -2 -2 -2 -2
0 -0 -0 -0 -0 0 -0 -0 -0 -0 -0 0 0 0 0 0 0 0 -0 -0 -0 -0 -0 -1 -1 -1 -1 -1 -1 -1 -1 -1 -1 -1 -1 -1 -1 -1 -1 -1 -1 -1 -1 -2 -2 -2 -2 -2 -2 -2 -2 -2 -2 -2 -2 -2 -2 -2 -2 -2 -2 -2 -2
-0 -0 -1 -1 -1 -1 -1 -1 -0 -0 -0 0 0 0 0 0 0 0 0 0 0 0 -0 -0 -1 -1 -1 -1 -1 -1 -1 -1 -1 -1 -2 -2 -2 -2 -2 -1 -2 -2 -1 -2 -2 -2 -2 -2 -3 -3 -2 -2 -2 -2 -2 -2 -2 -2 -2 -2 -2 -2 -2
-1 -1 -1 -1 -1 -1 -1 -1 -0 -0 -0 -0 0 0 0 0 0 0 0 0 0 0 0 -0 -0 -0 -1 -1 -1 -1 -1 -1 -1 -1 -2 -2 -2 -2 -2 -2 -2 -2 -2 -2 -2 -3 -2 -3 -3 -3 -2 -2 -2 -2 -2 -2 -2 -2 -2 -2 -2 -2 -2
-1 -1 -1 -1 -1 -1 -1 -1 -1 -1 -0 -0 -0 -0 -0 0 0 -0 0 0 0 -0 -0 -0 -1 -1 -1 -1 -1 -1 -1 -1 -1 -1 -2 -2 -2 -2 -2 -1 -2 -2 -2 -2 -3 -3 -3 -3 -3 -3 -3 -3 -3 -3 -2 -2 -2 -2 -2 -2 -2 -2 -2
-2 -2 -2 -2 -1 -1 -1 -1 -1 -1 -1 -1 -1 -1 -1 -1 -1 -1 -0 -0 -1 -1 -1 -1 -1 -1 -1 -1 -1 -1 -1 -1 -1 -1 -2 -2 -2 -2 -1 -1 -2 -2 -2 -3 -3 -3 -3 -3 -3 -3 -3 -3 -3 -3 -3 -3 -3 -3 -3 -2 -2 -2 -2
-2 -2 -2 -2 -2 -2 -2 -1 -1 -1 -1 -1 -1 -1 -1 -1 -1 -1 -1 -1 -1 -1 -1 -1 -1 -1 -1 -1 -1 -1 -1 -1 -1 -2 -2 -2 -2 -2 -2 -2 -2 -2 -2 -3 -3 -4 -4 -3 -3 -3 -3 -3 -3 -3 -3 -3 -3 -3 -3 -3 -3 -2 -2
-3 -2 -2 -2 -2 -2 -2 -2 -2 -2 -2 -2 -2 -2 -2 -2 -2 -2 -2 -2 -1 -1 -1 -1 -1 -2 -2 -2 -2 -2 -1 -1 -2 -2 -2 -2 -2 -2 -2 -2 -2 -2 -3 -3 -3 -4 -4 -4 -3 -3 -3 -3 -3 -3 -3 -3 -3 -3 -3 -3 -3 -2 -2
-3 -3 -3 -2 -2 -2 -2 -2 -2 -2 -2 -2 -2 -2 -2 -2 -2 -2 -2 -2 -2 -1 -2 -2 -2 -2 -2 -2 -2 -2 -2 -2 -2 -2 -2 -2 -2 -2 -2 -2 -2 -3 -3 -4 -4 -4 -5 -4 -4 -4 -3 -3 -3 -3 -3 -3 -3 -3 -3 -3 -3 -2 -2
-3 -3 -3 -3 -3 -3 -3 -3 -3 -3 -3 -3 -3 -3 -3 -3 -3 -2 -2 -2 -2 -2 -2 -2 -2 -2 -2 -2 -2 -2 -2 -2 -2 -2 -2 -2 -2 -2 -2 -3 -3 -4 -4 -4 -5 -5 -5 -4 -4 -4 -4 -4 -4 -3 -3 -3 -3 -3 -3 -3 -3 -2 -2
-3 -3 -3 -3 -3 -3 -3 -3 -3 -3 -3 -3 -3 -3 -3 -3 -3 -3 -3 -2 -2 -2 -2 -2 -2 -2 -2 -2 -2 -2 -2 -2 -2 -2 -2 -2 -2 -2 -3 -3 -4 -5 -5 -5 -5 -5 -5 -5 -5 -4 -4 -4 -4 -4 -3 -3 -3 -3 -3 -3 -2 -2 -2
Height
3139 3139 3140 3140 3140 3140 3140 3141 3140 3141 3141 3141 3141 3141 3140 3140 3139 3139 3140 3140 3141 3142 3142 3141 3141 3142 3142 3143 3144 3145 3147 3147 3147 3149 3150 3152 3153 3154 3154 3154 3154 3155 3156 3156 3157 3158 3158 3159 3160 3160 3160 3160 3160 3160 3160 3160 3159 3158 3158 3158 3159 3160 3160
3139 3139 3140 3140 3140 3140 3140 3140 3140 3140 3140 3140 3140 3140 3140 3139 3139 3139 3139 3139 3140 3141 3141 3141 3142 3142 3142 3143 3144 3145 3146 3147 3147 3148 3149 3150 3151 3152 3153 3153 3153 3153 3155 3156 3156 3157 3157 3158 3159 3159 3159 3159 3159 3159 3159 3159 3159 3159 3158 3158 3158 3159 3160
3138 3139 3140 3140 3140 3139 3139 3139 3139 3139 3139 3140 3140 3139 3139 3139 3138 3138 3138 3138 3139 3140 3140 3141 3142 3142 3143 3143 3144 3145 3145 3146 3147 3148 3149 3149 3150 3151 3152 3152 3152 3153 3155 3155 3155 3157 3157 3158 3158 3158 3158 3159 3159 3159 3159 3159 3159 3159 3158 3158 3158 3159 3159
3137 3138 3138 3139 3139 3139 3138 3138 3138 3139 3139 3139 3139 3139 3139 3138 3138 3138 3138 3138 3138 3139 3140 3140 3141 3142 3142 3143 3144 3144 3145 3146 3147 3148 3148 3149 3149 3150 3151 3152 3152 3153 3154 3155 3156 3157 3157 3157 3158 3157 3158 3158 3158 3158 3158 3158 3158 3158 3159 3158 3159 3160 3160
3135 3136 3137 3138 3138 3138 3137 3137 3138 3138 3138 3139 3138 3138 3138 3138 3138 3137 3137 3137 3137 3138 3139 3140 3141 3141 3142 3142 3143 3144 3145 3145 3146 3147 3147 3148 3149 3149 3150 3151 3151 3152 3153 3154 3155 3156 3156 3157 3157 3156 3157 3157 3158 3158 3157 3158 3158 3158 3158 3158 3159 3159 3160
3134 3135 3136 3136 3136 3137 3137 3137 3137 3138 3138 3138 3138 3138 3137 3137 3137 3137 3137 3137 3137 3137 3138 3139 3140 3140 3141 3142 3142 3143 3144 3145 3146 3146 3147 3147 3148 3148 3149 3149 3150 3151 3152 3153 3154 3155 3155 3157 3157 3156 3156 3157 3157 3157 3157 3157 3157 3158 3158 3158 3158 3159 3159
3133 3133 3134 3135 3135 3135 3136 3136 3136 3136 3137 3137 3137 3137 3136 3136 3136 3136 3136 3136 3136 3137 3137 3138 3139 3140 3141 3141 3141 3142 3143 3145 3145 3146 3146 3147 3147 3148 3149 3149 3150 3151 3152 3153 3153 3154 3155 3157 3157 3156 3156 3156 3157 3157 3156 3157 3157 3157 3158 3158 3158 3158 3159
3131 3132 3133 3134 3134 3134 3134 3135 3135 3136 3136 3136 3136 3136 3136 3135 3135 3136 3136 3136 3136 3136 3137 3138 3139 3140 3140 3141 3141 3142 3144 3145 3145 3145 3146 3147 3147 3148 3149 3150 3150 3151 3151 3152 3152 3153 3155 3156 3156 3156 3156 3157 3157 3158 3157 3157 3158 3158 3158 3158 3158 3158 3159
3131 3131 3132 3133 3133 3133 3133 3134 3134 3135 3135 3135 3135 3135 3134 3135 3135 3135 3135 3135 3136 3136 3137 3137 3138 3140 3141 3141 3142 3142 3143 3144 3145 3145 3146 3146 3147 3148 3148 3149 3150 3150 3151 3151 3152 3152 3153 3154 3155 3156 3157 3157 3158 3159 3158 3158 3158 3158 3158 3158 3158 3158 3159
3130 3130 3131 3132 3132 3132 3132 3133 3133 3134 3134 3134 3133 3133 3133 3134 3134 3134 3134 3135 3135 3136 3136 3137 3138 3139 3140 3141 3142 3143 3144 3144 3145 3146 3146 3147 3147 3148 3148 3149 3149 3150 3151 3152 3152 3152 3153 3153 3154 3155 3156 3157 3157 3158 3157 3157 3158 3158 3158 3158 3159 3159 3159
3129 3129 3130 3130 3130 3131 3131 3131 3131 3132 3132 3132 3132 3132 3132 3133 3133 3133 3134 3134 3135 3136 3136 3137 3137 3139 3140 3141 3142 3143 3144 3144 3145 3146 3146 3147 3148 3148 3149 3149 3150 3150 3151 3152 3152 3153 3153 3154 3154 3154 3155 3155 3156 3156 3156 3156 3157 3158 3158 3158 3158 3159 3159
3128 3128 3129 3129 3129 3130 3130 3130 3130 3131 3131 3131 3130 3131 3131 3132 3132 3132 3133 3134 3135 3136 3136 3137 3137 3138 3139 3141 3142 3143 3144 3144 3145 3146 3146 3147 3148 3149 3149 3150 3150 3151 3151 3152 3153 3153 3154 3154 3155 3154 3155 3155 3155 3156 3156 3156 3157 3157 3158 3158 3157 3157 3157
3126 3127 3127 3128 3128 3129 3129 3129 3129 3129 3129 3129 3129 3129 3130 3131 3131 3132 3133 3134 3135 3136 3137 3137 3138 3138 3139 3140 3141 3142 3143 3144 3145 3146 3147 3147 3148 3149 3150 3150 3151 3151 3152 3153 3153 3154 3154 3155 3155 3155 3155 3155 3155 3156 3155 3156 3156 3157 3157 3157 3157 3157 3156
3125 3126 3126 3127 3127 3128 3128 3128 3128 3128 3128 3127 3127 3128 3128 3129 3130 3131 3133 3134 3135 3136 3137 3138 3138 3139 3140 3141 3142 3143 3144 3145 3146 3146 3147 3148 3149 3149 3150 3151 3151 3152 3152 3153 3153 3154 3154 3154 3155 3155 3155 3155 3155 3155 3155 3155 3156 3156 3155 3155 3155 3155 3155
3124 3125 3125 3126 3126 3126 3127 3127 3127 3126 3126 3126 3126 3126 3127 3128 3130 3131 3132 3134 3135 3136 3137 3138 3139 3140 3141 3141 3142 3143 3144 3145 3146 3147 3148 3148 3149 3150 3150 3151 3151 3151 3152 3152 3153 3154 3154 3154 3154 3153 3154 3154 3155 3155 3154 3154 3153 3154 3154 3154 3153 3153 3154
3123 3124 3125 3125 3125 3126 3126 3126 3126 3125 3125 3125 3124 3125 3126 3127 3129 3130 3132 3134 3135 3136 3137 3138 3139 3140 3141 3142 3143 3144 3145 3146 3147 3147 3148 3149 3149 3150 3150 3151 3151 3151 3152 3152 3152 3153 3153 3153 3152 3152 3152 3153 3154 3154 3154 3153 3151 3151 3151 3151 3151 3151 3152
3122 3123 3124 3124 3124 3125 3125 3125 3124 3124 3124 3124 3124 3124 3125 3127 3129 3130 3133 3134 3135 3136 3137 3138 3139 3140 3141 3142 3143 3144 3145 3146 3147 3147 3148 3149 3149 3150 3150 3150 3151 3151 3151 3151 3152 3152 3152 3152 3151 3152 3152 3152 3152 3153 3152 3151 3150 3150 3150 3149 3149 3149 3150
3121 3122 3122 3123 3123 3123 3123 3124 3123 3123 3124 3124 3124 3125 3126 3127 3129 3130 3133 3134 3135 3137 3137 3138 3139 3140 3141 3142 3143 3144 3145 3145 3146 3147 3147 3148 3148 3149 3149 3150 3150 3150 3150 3151 3151 3151 3152 3151 3150 3151 3151 3150 3150 3151 3151 3150 3149 3150 3149 3148 3148 3147 3148
3120 3121 3121 3122 3122 3122 3122 3122 3123 3123 3123 3124 3124 3125 3126 3127 3129 3130 3132 3134 3135 3136 3137 3138 3139 3140 3141 3142 3142 3143 3144 3145 3146 3146 3146 3147 3147 3147 3148 3148 3149 3149 3150 3150 3150 3150 3151 3151 3150 3150 3150 3149 3148 3148 3149 3149 3148 3148 3148 3147 3147 3146 3146
3119 3120 3120 3121 3121 3121 3121 3121 3122 3123 3123 3124 3124 3125 3126 3127 3129 3130 3132 3133 3134 3135 3136 3137 3138 3139 3140 3141 3142 3142 3143 3144 3144 3145 3145 3145 3145 3146 3146 3146 3147 3148 3148 3148 3148 3149 3149 3149 3149 3148 3149 3148 3147 3146 3148 3148 3148 3147 3146 3146 3145 3145 3144
3118 3118 3119 3119 3120 3120 3120 3121 3121 3122 3122 3123 3124 3125 3126 3127 3128 3129 3131 3132 3133 3134 3135 3135 3136 3138 3139 3139 3140 3141 3142 3143 3143 3143 3144 3143 3143 3144 3145 3146 3146 3146 3147 3147 3146 3147 3147 3147 3147 3147 3147 3147 3146 3146 3146 3146 3146 3146 3145 3144 3143 3143 3143
3116 3117 3118 3118 3119 3119 3119 3120 3120 3121 3121 3122 3123 3124 3125 3126 3128 3129 3129 3130 3131 3132 3133 3134 3135 3136 3137 3138 3139 3140 3141 3141 3141 3142 3142 3141 3141 3142 3143 3144 3144 3144 3145 3145 3145 3145 3145 3145 3145 3145 3145 3145 3144 3144 3144 3144 3144 3144 3144 3143 3142 3141 3141
3115 3116 3117 3117 3118 3118 3119 3119 3120 3120 3121 3121 3122 3124 3124 3125 3127 3127 3128 3129 3129 3130 3131 3132 3133 3135 3136 3137 3138 3139 3139 3139 3139 3139 3140 3140 3140 3140 3141 3142 3142 3142 3143 3143 3143 3142 3142 3142 3143 3142 3142 3142 3142 3142 3142 3142 3142 3142 3141 3141 3140 3139 3138
3114 3115 3116 3116 3117 3118 3118 3119 3120 3120 3120 3121 3121 3122 3123 3124 3125 3126 3127 3127 3127 3128 3129 3130 3131 3133 3134 3135 3136 3137 3138 3137 3137 3137 3137 3138 3138 3138 3139 3139 3139 3140 3140 3140 3140 3140 3139 3139 3139 3139 3139 3139 3139 3139 3139 3139 3139 3139 3139 3139 3138 3137 3136
3113 3114 3115 3115 3116 3117 3118 3118 3119 3119 3120 3120 3121 3121 3122 3123 3123 3124 3125 3125 3126 3127 3126 3127 3130 3132 3133 3134 3134 3135 3135 3135 3135 3135 3134 3135 3135 3134 3135 3135 3136 3137 3137 3137 3137 3136 3136 3136 3136 3136 3136 3136 3136 3136 3136 3136 3136 3136 3136 3136 3135 3134 3134
3111 3112 3113 3115 3115 3116 3117 3117 3118 3118 3119 3120 3120 3120 3121 3121 3122 3122 3123 3124 3125 3124 3123 3125 3128 3130 3131 3131 3131 3131 3132 3132 3133 3132 3131 3131 3131 3130 3130 3131 3131 3131 3132 3133 3132 3132 3132 3132 3132 3132 3132 3133 3133 3134 3134 3134 3133 3133 3133 3133 3132 3132 3131
3110 3111 3112 3113 3114 3114 3115 3116 3117 3117 3117 3118 3118 3118 3118 3119 3120 3120 3121 3121 3121 3120 3122 3124 3126 3127 3128 3128 3128 3128 3128 3128 3128 3128 3128 3128 3126 3126 3126 3126 3126 3126 3127 3128 3128 3127 3127 3127 3127 3128 3129 3130 3130 3131 3131 3131 3131 3130 3130 3130 3129 3128 3128
3107 3109 3110 3110 3111 3112 3112 3112 3113 3113 3114 3114 3115 3115 3115 3116 3117 3118 3117 3117 3117 3118 3119 3121 3123 3124 3124 3125 3124 3123 3123 3123 3123 3123 3124 3123 3122 3123 3122 3121 3121 3122 3122 3124 3124 3123 3123 3124 3124 3124 3126 3127 3127 3128 3128 3128 3128 3127 3127 3126 3126 3125 3125
3104 3106 3107 3108 3109 3109 3109 3110 3110 3110 3111 3111 3112 3112 3113 3114 3115 3115 3115 3115 3115 3115 3115 3117 3119 3120 3120 3120 3120 3119 3119 3118 3117 3117 3118 3118 3118 3118 3118 3117 3118 3118 3117 3119 3120 3119 3119 3121 3121 3121 3122 3123 3124 3125 3125 3125 3125 3124 3124 3123 3122 3122 3121
3104 3105 3105 3106 3107 3107 3108 3108 3108 3108 3108 3109 3109 3110 3110 3110 3111 3112 3112 3112 3112 3112 3112 3113 3114 3116 3116 3116 3115 3115 3115 3114 3113 3112 3111 3112 3112 3113 3112 3113 3114 3113 3113 3115 3115 3115 3115 3117 3117 3118 3119 3120 3121 3121 3122 3122 3122 3121 3121 3120 3119 3118 3117
3103 3103 3104 3105 3105 3106 3106 3107 3106 3106 3106 3106 3106 3106 3106 3107 3107 3108 3108 3108 3108 3108 3107 3108 3109 3110 3111 3111 3111 3110 3110 3110 3110 3108 3106 3106 3107 3107 3107 3107 3108 3109 3110 3111 3111 3111 3111 3113 3114 3115 3116 3117 3118 3118 3118 3118 3118 3117 3117 3116 3115 3114 3113
3100 3100 3102 3102 3103 3103 3103 3104 3104 3103 3103 3103 3102 3102 3102 3102 3102 3102 3103 3103 3103 3103 3103 3103 3104 3105 3106 3106 3106 3106 3105 3104 3105 3104 3102 3102 3102 3102 3102 3102 3102 3104 3106 3106 3106 3107 3108 3109 3110 3112 3113 3114 3114 3115 3115 3115 3114 3113 3113 3112 3111 3110 3109
3096 3097 3098 3099 3099 3099 3099 3099 3099 3099 3098 3098 3098 3098 3098 3097 3097 3097 3097 3097 3098 3098 3099 3099 3099 3100 3101 3101 3101 3101 3099 3098 3099 3099 3098 3097 3097 3097 3098 3097 3097 3099 3100 3101 3101 3103 3105 3106 3107 3108 3109 3109 3109 3110 3111 3111 3110 3109 3109 3108 3107 3106 3105
3092 3093 3094 3094 3094 3094 3094 3094 3094 3094 3094 3094 3093 3093 3093 3093 3093 3092 3092 3092 3091 3092 3094 3094 3094 3095 3096 3096 3096 3095 3093 3093 3093 3094 3094 3093 3092 3092 3093 3093 3092 3092 3094 3096 3097 3098 3100 3102 3104 3105 3105 3105 3104 3104 3105 3105 3106 3105 3104 3104 3103 3102 3102
3088 3088 3089 3089 3089 3089 3089 3089 3088 3088 3088 3088 3088 3088 3088 3088 3088 3088 3088 3087 3086 3086 3087 3088 3089 3090 3091 3091 3091 3090 3089 3089 3089 3089 3089 3088 3088 3087 3088 3088 3087 3087 3089 3091 3092 3094 3096 3098 3100 3101 3101 3101 3101 3101 3101 3101 3102 3102 3101 3100 3099 3099 3098
3083 3082 3082 3082 3082 3082 3082 3082 3082 3082 3082 3082 3082 3082 3083 3083 3083 3083 3083 3083 3083 3082 3081 3081 3083 3085 3086 3086 3086 3086 3085 3084 3085 3085 3084 3084 3083 3083 3082 3082 3083 3085 3086 3087 3089 3091 3093 3095 3096 3097 3097 3098 3098 3098 3098 3098 3098 3097 3097 3096 3095 3095 3094
3076 3076 3075 3075 3075 3075 3075 3075 3075 3076 3076 3076 3076 3076 3077 3077 3077 3077 3077 3077 3078 3078 3077 3075 3076 3079 3080 3081 3080 3081 3081 3080 3080 3081 3080 3080 3080 3079 3078 3078 3081 3083 3085 3086 3086 3087 3089 3091 3093 3094 3094 3095 3095 3095 3095 3095 3094 3094 3093 3093 3092 3091 3090
Wind_Speed
3 4 5 5 5 6 7 9 10 11 12 12 12 12 10 8 7 6 5 3 2 4 6 7 7 7 8 7 6 6 6 5 6 7 7 8 8 8 9 8 7 8 8 7 7 8 9 9 7 4 4 3 3 4 3 3 4 5 7 7 6 5 4
7 8 8 6 5 5 6 8 9 11 12 12 13 13 12 11 9 7 5 5 4 3 6 8 8 7 7 7 7 8 7 6 8 8 7 7 7 7 8 8 8 7 7 7 8 8 8 8 7 5 4 3 3 2 2 2 3 3 4 5 4 3 3
8 9 9 7 6 6 6 7 9 11 12 12 13 13 13 13 12 10 7 6 4 3 4 5 7 6 6 7 9 9 9 9 10 9 7 6 7 7 8 9 9 8 7 7 8 7 8 8 6 5 4 3 3 2 1 1 1 1 1 3 3 4 3
9 9 9 9 8 8 8 9 9 10 11 12 13 13 13 14 15 13 9 7 4 2 4 5 6 6 5 6 8 9 9 9 10 10 8 8 8 8 7 8 8 7 7 8 8 7 7 6 3 4 5 5 3 2 1 1 1 1 1 2 3 4 3
10 10 9 9 9 9 10 11 11 11 11 11 12 13 14 15 16 15 12 8 5 1 4 5 5 6 6 6 7 9 9 9 9 9 9 9 10 8 8 9 9 9 9 12 10 7 5 3 3 3 5 4 3 2 1 1 2 2 3 3 3 4 3
12 11 10 9 10 10 11 13 13 13 11 10 11 12 14 15 15 16 14 10 6 2 5 6 6 7 7 6 7 8 8 9 9 10 10 11 12 11 12 13 11 11 11 10 10 8 5 3 0 1 3 2 3 2 0 1 2 3 5 5 5 5 5
15 14 12 11 12 12 13 14 14 15 12 9 10 11 13 13 14 15 14 12 7 3 4 6 7 7 7 7 7 7 8 9 9 10 11 13 13 12 13 12 10 10 10 9 11 11 10 9 8 6 8 1 6 8 4 3 5 6 6 6 6 7 7
17 16 13 12 12 13 14 14 14 14 12 9 9 10 11 11 12 14 14 12 9 5 4 6 7 7 7 7 7 7 8 9 9 9 9 10 12 11 11 11 10 11 12 11 13 13 14 16 15 14 9 5 10 7 2 1 5 6 5 6 6 6 6
18 16 13 11 13 14 14 15 15 13 12 11 10 9 8 8 10 12 13 12 9 6 5 5 6 6 8 8 8 8 8 8 8 8 9 10 11 11 11 12 11 12 11 11 12 13 14 16 14 10 5 10 11 8 4 5 2 4 4 5 5 5 5
15 14 12 11 13 14 16 17 16 14 13 12 11 10 8 8 9 10 12 11 8 6 4 4 5 5 7 8 7 7 7 7 8 9 10 11 11 11 11 11 11 11 10 9 9 8 9 11 12 11 9 7 8 5 2 2 1 2 2 3 3 3 2
13 12 11 12 13 15 16 16 15 13 13 13 14 13 12 12 10 9 10 9 8 6 4 4 5 6 7 8 7 8 8 8 9 10 10 10 10 10 10 10 10 11 12 11 10 9 8 7 10 11 8 8 10 7 5 4 3 1 1 1 1 1 0
13 13 12 13 14 14 14 13 12 12 12 14 15 14 14 12 9 6 7 7 6 5 4 4 5 6 7 8 8 8 9 9 10 10 10 11 11 11 11 12 12 13 12 11 10 10 9 8 7 6 5 8 12 9 6 6 4 4 3 3 4 4 4
13 12 13 14 14 14 13 13 13 13 13 14 15 15 13 9 6 4 5 6 5 4 4 4 4 5 7 8 8 9 9 10 10 11 11 11 11 12 11 11 11 11 10 10 9 8 7 6 5 4 4 7 10 7 5 6 6 7 6 5 5 6 7
14 14 14 14 13 12 12 12 12 12 13 15 15 14 10 7 7 5 5 6 5 4 4 4 4 5 6 7 7 8 9 9 10 10 10 10 10 10 10 9 8 8 7 6 5 5 4 3 3 3 4 7 9 8 9 9 8 8 8 7 7 7 8
14 13 12 11 10 10 10 9 10 11 13 14 14 13 7 10 10 7 7 7 6 6 5 5 5 5 6 6 6 6 7 8 9 9 9 9 8 8 7 6 5 4 3 2 1 1 2 3 5 5 6 7 8 9 10 10 10 9 8 7 8 8 8
11 10 8 8 8 8 8 8 8 9 11 11 12 11 6 13 12 9 9 9 8 8 7 7 6 6 6 6 6 5 5 6 7 7 6 6 5 4 4 3 2 1 2 3 3 3 4 6 8 8 7 6 6 7 8 9 11 11 11 11 11 11 9
9 7 6 7 8 7 7 7 8 8 10 9 9 6 6 14 13 11 11 11 10 9 9 8 7 7 7 7 6 5 5 6 5 4 4 3 3 3 3 4 4 4 5 5 6 6 6 9 10 9 9 10 9 8 8 9 11 11 12 13 13 14 13
8 7 8 8 8 8 7 7 7 8 8 7 6 3 8 13 12 11 12 12 12 11 10 9 9 9 9 8 7 6 7 7 5 5 6 6 6 7 7 7 7 7 8 8 8 8 7 9 11 10 10 12 12 10 9 10 11 11 12 13 13 14 15
9 9 10 9 8 8 7 7 7 7 6 6 6 5 9 12 12 12 13 14 14 13 12 12 12 12 11 11 10 9 9 10 9 9 10 9 10 11 11 12 11 11 11 11 11 11 9 9 10 11 10 11 14 13 8 8 11 12 12 12 13 14 15
12 11 10 9 9 8 7 7 7 6 6 6 7 8 10 12 13 14 16 17 17 16 16 16 16 15 14 14 14 13 13 12 13 13 13 13 14 14 14 14 14 13 14 14 14 14 13 11 11 12 11 11 14 15 11 9 10 12 12 12 14 15 16
12 12 10 9 9 8 8 7 7 7 6 6 8 10 12 13 14 16 17 18 19 20 19 19 20 19 18 18 18 17 16 15 16 17 17 18 19 18 16 16 16 17 17 17 16 15 14 14 13 14 13 13 14 14 13 11 11 11 12 12 15 16 17
13 12 11 9 8 8 8 7 8 8 8 7 9 11 13 15 16 18 20 20 22 23 22 23 23 22 22 22 21 20 19 19 20 21 21 22 22 21 19 19 19 20 20 19 19 18 17 16 16 17 17 15 14 13 13 12 12 13 13 13 15 17 18
14 12 11 10 9 9 9 9 9 10 9 9 10 12 14 16 18 20 22 23 24 25 26 26 26 26 26 25 25 24 23 24 25 25 24 25 25 25 24 23 22 22 23 23 23 22 21 20 19 19 19 16 14 14 14 13 14 15 15 15 16 18 19
15 14 13 12 11 10 11 11 12 12 12 12 12 14 15 17 19 20 22 24 27 28 29 29 29 28 28 28 28 27 27 27 28 29 28 28 28 28 28 27 26 25 26 27 27 26 25 23 22 20 20 18 16 16 15 15 15 16 16 16 17 19 20
16 15 15 15 14 12 12 12 14 14 15 15 16 16 17 19 21 22 22 23 26 29 31 32 32 31 30 31 31 31 31 31 31 32 33 33 33 33 33 32 32 31 31 30 29 28 27 26 22 20 19 18 17 16 16 16 17 17 18 18 19 20 21
17 17 17 17 16 15 14 14 15 16 17 18 19 19 19 20 21 22 23 24 27 30 31 31 31 32 33 34 35 35 34 34 34 35 36 37 37 39 38 37 38 38 36 33 32 32 31 26 21 18 17 17 16 17 17 17 18 19 19 20 20 21 21
18 18 18 18 17 17 16 15 16 16 17 18 18 17 18 19 19 20 22 26 30 32 32 31 32 32 32 33 35 37 38 38 38 38 38 39 41 42 41 41 42 42 40 36 34 33 28 22 19 19 18 18 18 18 18 18 18 20 20 21 21 22 21
19 17 16 17 16 15 15 14 14 14 14 14 14 15 17 17 18 19 21 24 27 28 30 31 31 32 32 33 35 38 40 41 42 41 41 42 43 43 43 45 45 44 42 38 35 32 25 19 19 20 20 19 19 18 18 19 19 20 21 21 22 22 21
19 17 16 17 16 16 16 15 15 15 16 16 17 18 19 19 19 21 23 24 24 25 27 27 26 27 30 32 34 36 37 39 41 42 44 45 45 44 45 46 46 46 43 39 35 31 24 20 20 22 21 20 20 19 20 20 20 21 21 21 21 21 20
18 17 17 18 19 19 19 18 18 19 19 21 22 23 23 24 24 24 25 26 27 27 28 27 26 25 26 28 30 32 33 34 34 37 42 45 45 45 47 46 46 46 42 38 32 27 22 20 22 23 22 21 21 20 20 20 21 21 21 20 20 20 21
19 19 19 20 21 22 21 20 21 22 23 25 26 26 28 29 28 28 29 30 30 29 29 29 29 28 27 28 30 31 31 31 31 34 38 41 41 43 44 44 45 42 37 33 28 23 21 22 23 23 22 22 22 21 20 21 21 20 20 20 21 22 22
22 21 21 22 23 24 24 24 25 26 27 28 29 29 31 32 32 32 32 32 31 31 30 31 31 31 30 30 31 31 33 33 32 33 36 37 39 41 42 43 43 39 33 30 25 22 22 24 24 23 23 22 22 20 19 20 21 20 21 21 22 23 24
23 23 24 25 26 27 28 29 29 31 31 32 33 33 33 34 34 34 34 33 33 33 33 33 33 32 32 32 32 33 35 36 34 35 36 37 39 41 40 40 41 36 33 32 27 23 24 25 24 23 23 22 23 22 20 20 21 22 22 22 23 25 26
26 27 27 28 30 31 32 33 34 35 35 36 36 37 36 36 35 36 36 36 37 37 35 34 34 33 32 32 32 34 36 36 35 35 36 37 39 40 39 40 41 36 32 33 30 26 24 25 23 23 22 21 22 22 22 22 23 24 24 24 25 27 28
29 31 32 33 34 35 35 36 37 38 38 38 38 38 38 38 37 37 37 38 39 39 37 35 34 34 33 32 32 34 35 35 33 34 36 36 38 40 41 42 40 34 30 30 29 25 23 23 22 21 20 20 20 21 22 23 24 25 25 26 27 29 30
34 35 37 38 39 39 39 39 39 39 39 39 39 39 39 38 38 38 38 37 37 38 39 39 37 34 32 32 32 33 34 35 34 33 35 36 38 42 42 38 33 32 31 28 25 22 21 20 20 19 18 18 19 20 22 25 26 26 26 28 29 31 31
37 38 39 40 41 41 42 42 42 42 41 41 41 41 40 40 40 41 41 40 39 40 42 44 43 39 36 35 34 33 33 34 34 32 33 34 36 39 39 31 24 24 24 22 20 20 20 19 19 19 18 18 20 21 23 25 26 27 27 29 30 31 32
Wind_Direction
257 289 317 337 5 22 24 20 18 18 19 20 19 18 17 15 11 9 6 348 273 220 221 229 235 239 242 245 246 243 242 242 250 249 235 224 215 216 226 225 218 224 229 228 216 204 211 215 207 213 228 233 252 266 277 269 269 277 279 281 281 282 284
284 302 313 320 336 359 7 7 7 8 9 11 10 8 6 7 4 360 355 342 327 260 229 215 211 229 243 241 243 248 245 235 237 239 236 231 216 205 211 217 216 215 217 217 202 193 205 208 196 202 216 219 230 237 249 265 268 270 281 291 304 329 314
289 304 311 311 316 331 344 351 355 357 359 1 1 2 3 3 360 355 347 340 338 288 251 214 193 204 223 230 236 244 244 235 231 231 228 224 217 204 201 211 213 204 200 199 188 186 201 203 201 204 195 187 202 204 192 205 237 258 304 321 2 44 17
277 290 305 308 313 322 331 335 339 344 348 352 355 357 1 1 356 349 342 337 334 287 221 196 187 190 199 220 228 230 233 229 226 226 218 209 210 207 199 199 200 196 183 165 161 173 188 194 226 208 173 162 172 159 146 142 104 88 49 11 21 45 28
264 276 294 301 309 319 323 323 324 329 334 341 349 352 352 354 352 346 340 333 325 269 200 193 190 192 193 204 217 219 219 217 215 213 209 201 198 195 190 185 179 177 163 151 152 151 165 218 277 206 167 144 135 105 88 43 11 1 12 17 25 41 48
260 273 282 291 304 314 316 315 315 314 316 331 344 346 345 347 348 345 338 329 319 247 201 198 197 202 199 189 198 206 209 209 204 199 197 191 189 188 189 188 183 182 175 166 163 157 174 214 337 234 244 148 107 41 35 132 36 31 34 36 44 53 67
259 269 275 289 302 310 313 313 312 308 306 323 338 337 339 341 343 342 334 324 313 277 216 204 205 210 205 196 199 201 200 202 195 191 190 187 189 191 194 196 192 187 185 176 170 169 169 148 138 216 255 199 69 32 36 91 59 57 55 50 55 55 59
256 266 273 286 297 304 309 310 312 309 302 311 323 326 334 336 336 337 329 318 306 285 240 212 211 213 212 213 216 210 202 202 197 193 190 187 190 191 189 193 187 177 175 170 169 168 156 146 164 209 223 123 97 79 98 121 42 60 63 52 59 59 55
256 264 273 284 291 295 300 302 305 303 295 299 309 313 323 325 329 333 323 310 297 284 260 229 220 215 219 223 224 221 211 202 196 191 186 183 185 184 179 181 178 171 171 173 176 175 166 164 179 192 136 109 123 138 202 256 2 66 77 68 68 60 54
257 264 275 284 288 292 293 295 297 297 290 286 292 294 294 303 316 325 316 300 287 279 261 231 217 208 216 221 220 222 214 198 189 183 181 179 179 179 175 173 170 164 160 161 166 170 167 168 165 146 121 131 149 152 227 245 121 92 68 74 86 67 59
255 263 275 281 289 292 291 291 294 297 288 279 283 283 285 297 308 313 306 291 278 270 249 223 209 196 204 214 215 216 209 194 186 181 177 175 172 168 160 154 149 144 139 138 139 134 133 145 153 146 145 169 171 170 195 196 178 191 326 331 357 45 44
249 260 271 280 288 290 288 289 292 296 290 282 282 280 284 296 297 293 290 275 260 251 231 213 201 189 194 202 203 201 193 184 180 175 168 163 155 147 143 139 137 134 131 130 129 127 127 132 146 144 134 162 173 180 201 217 246 263 265 286 306 316 308
244 257 269 277 284 286 285 287 292 298 296 290 286 285 288 285 258 254 264 248 236 229 213 196 188 183 186 190 187 183 179 174 172 167 163 158 148 141 139 136 135 131 128 129 128 128 130 127 137 135 114 156 182 206 237 247 265 271 269 276 289 302 308
248 258 265 273 279 281 282 287 296 302 301 296 292 291 283 236 210 219 226 223 213 202 194 186 183 180 181 183 180 181 180 175 171 166 161 154 145 142 139 136 133 130 131 138 138 140 147 145 161 176 175 186 200 222 247 258 265 265 268 275 283 294 299
249 253 258 266 271 276 282 293 304 308 306 300 296 297 262 197 192 198 209 217 208 195 192 185 184 181 179 180 180 184 183 177 171 165 160 154 150 150 147 143 138 133 141 165 185 200 212 237 250 244 229 220 218 229 250 271 278 272 273 283 290 293 296
237 240 250 259 265 275 287 300 310 312 310 304 302 303 234 187 187 191 204 218 211 202 199 192 186 183 180 178 178 177 175 174 172 169 170 170 171 171 167 165 160 187 246 267 269 275 266 256 262 266 263 260 255 255 264 277 282 285 292 297 298 295 295
228 234 243 252 262 276 290 301 311 316 313 307 306 304 193 182 187 190 204 221 219 211 207 201 197 194 192 191 191 187 186 191 193 203 220 227 233 237 221 218 232 239 249 259 263 266 263 262 268 270 271 277 274 260 254 258 267 279 290 296 301 301 303
226 237 243 249 261 275 289 304 312 314 311 303 299 267 182 185 192 195 207 223 227 224 218 214 214 212 209 211 214 217 218 223 233 249 261 263 260 262 259 254 255 255 259 265 267 267 261 263 272 273 273 278 275 259 243 248 259 269 279 286 293 297 302
228 237 243 249 260 272 286 300 307 306 302 295 280 237 198 198 201 202 211 223 230 231 228 227 227 227 227 228 231 235 237 243 251 256 263 266 262 262 264 265 265 267 273 277 278 279 273 265 268 271 272 274 277 277 264 254 263 269 272 277 283 291 298
230 233 237 245 253 263 274 282 289 292 291 283 267 245 224 216 213 211 216 224 231 233 233 234 235 236 237 237 240 243 245 250 255 260 266 269 266 264 263 268 272 273 275 277 278 279 278 272 267 268 271 269 272 280 280 268 270 275 276 282 289 296 303
224 226 229 236 243 252 263 270 274 278 279 271 260 252 243 236 230 225 224 228 233 236 237 238 241 242 243 243 244 246 250 253 255 260 265 267 268 269 271 277 281 281 280 278 276 276 276 275 269 266 270 268 265 270 272 269 270 275 283 293 297 299 302
219 222 225 230 241 253 265 271 270 269 268 265 261 256 253 251 246 239 235 236 238 240 241 242 244 246 247 248 249 250 252 253 255 259 263 267 272 274 275 278 280 282 284 281 277 276 274 274 273 272 272 268 261 260 263 266 268 273 282 289 291 293 296
224 228 233 238 247 261 271 274 272 270 268 266 262 257 255 255 251 246 244 244 245 245 245 245 246 248 249 251 254 255 256 257 261 264 265 268 272 272 272 274 276 280 283 281 279 276 273 274 276 273 268 261 255 254 256 261 268 274 283 288 290 292 294
232 234 239 243 247 255 263 267 267 268 266 263 261 258 256 255 254 252 250 248 248 249 249 248 247 248 250 253 256 258 259 261 265 268 268 270 272 272 273 274 274 279 284 284 281 276 274 278 278 269 260 254 250 253 257 263 269 276 283 287 289 292 295
234 237 242 246 249 254 259 262 264 264 264 264 262 259 257 257 257 258 258 255 255 255 254 252 250 250 252 255 257 259 260 262 265 267 270 273 275 275 275 274 274 280 287 288 285 278 275 280 277 264 255 250 248 253 260 267 272 277 283 287 289 291 295
231 236 242 244 246 251 254 257 258 258 258 260 261 259 258 258 257 260 262 262 262 260 257 255 255 255 255 256 258 260 261 262 263 266 269 273 275 275 275 275 276 281 288 291 289 282 276 274 267 254 249 249 250 256 263 269 275 280 285 289 291 293 296
230 234 239 240 240 242 242 241 243 245 247 251 256 260 263 265 264 263 262 260 262 264 263 264 264 261 258 259 262 264 265 265 264 265 267 269 272 274 276 276 277 281 287 291 292 286 276 264 253 247 247 250 252 258 264 270 277 283 287 291 292 295 299
229 231 236 239 241 243 244 244 245 248 250 252 258 263 268 272 272 269 267 265 267 271 271 270 268 263 262 265 269 270 271 271 270 268 267 268 269 271 273 275 276 280 283 286 285 280 268 251 243 244 245 248 253 259 266 272 279 284 288 292 294 297 301
232 233 234 237 240 241 242 243 244 249 253 256 260 263 268 274 275 274 274 274 277 279 277 274 268 262 261 264 267 270 272 274 273 271 269 267 267 267 268 271 274 276 280 283 278 267 253 239 237 241 245 249 255 262 268 275 281 285 288 291 294 299 303
237 239 240 242 243 241 239 240 243 249 256 261 264 266 270 275 277 277 276 277 279 281 279 276 270 263 258 257 260 264 267 269 271 271 269 268 267 267 267 269 270 272 277 278 267 249 237 231 232 238 245 250 256 262 269 276 281 285 290 294 298 302 305
246 246 248 251 251 250 250 251 255 260 265 267 270 272 274 277 279 278 277 276 277 277 276 275 272 267 264 259 258 260 263 265 266 267 268 268 267 266 267 268 269 271 274 270 252 231 225 228 231 237 244 250 257 264 272 279 285 291 297 300 302 304 306
260 260 261 260 259 259 260 260 261 264 266 268 271 273 276 278 279 278 278 278 276 273 271 270 269 268 268 265 262 262 263 264 265 266 267 269 268 265 264 266 269 268 267 258 240 222 223 230 234 241 246 252 260 267 276 284 291 297 299 300 301 304 305
267 268 267 265 264 264 263 263 264 265 266 268 270 272 273 274 275 275 277 276 274 270 268 267 267 267 266 265 265 265 264 263 263 264 265 267 266 264 263 266 267 263 256 248 231 215 221 231 236 244 251 258 266 273 281 289 295 299 299 301 303 304 304
266 266 265 264 264 264 264 265 265 266 267 268 269 269 270 269 269 270 271 272 272 271 268 266 267 268 267 266 266 265 263 262 261 263 264 263 263 265 266 266 264 257 247 239 226 212 218 231 238 246 255 264 274 283 291 297 299 300 301 303 303 302 302
268 268 267 266 265 265 265 265 265 266 266 267 267 267 267 267 266 266 267 269 271 273 273 272 271 270 269 268 268 267 266 266 265 266 266 265 267 268 263 257 254 245 230 222 217 213 219 231 240 249 259 270 281 289 295 298 299 299 301 302 301 301 302
272 271 270 269 268 267 267 266 266 266 265 265 264 264 263 264 264 265 266 266 268 271 274 276 275 272 270 269 268 268 270 269 267 265 265 268 271 267 257 248 243 234 219 208 205 210 220 232 243 253 263 273 282 289 293 296 297 299 300 300 300 301 303
275 273 271 270 269 268 268 268 268 267 266 264 263 262 261 262 263 265 266 267 267 268 270 273 275 274 272 270 269 269 270 268 266 266 266 267 266 260 250 239 225 216 212 210 210 216 226 237 248 258 266 274 281 287 291 294 296 298 298 298 298 300 302